Погода Лубны

Погода Лубны : погода сейчас, прогноз погоды и архив. Всё, что Вы хотите узнать о погоде Лубны!

Поиск расширенной информации на нашем сайте:

Другие новости

Новости СМИ2

Главная страница сайта

Новости сайта

03.07.2017

Напоминаем, что на нашем специализированном сайте Метеоцентр.Азия вы можете получить высокодетализированные автоматические прогнозы погоды по пунктам России, СНГ и мира в авиационном формате (включающие направление и скорость ветра, видимость, явления погоды, количество и форму облачности, нижнюю и верхнюю границу облачности).


Погода Лубны - сегодня

Время (UTC), дата Ветер
(°,м/с) 
Видим.   Явления Облачность Т
(°С)
Тd
(°С)
f(%) Тe
(°С)
Pmin
(гПа)
dP
(гПа)
Po
(мм)
O2
(г/м3)
Тmin Tmax R s Состояние
почвы
21 19.07.17 020 (С) 10 км    ясно 
+16 +10.7 71 +19  1017.4  -0.6  749  283           
00 20.07.17 тихо ()   10 км    ясно 
+13.9 +10.2 78 +15  1017.2  -0.3  749  285           
03 20.07.17 тихо ()   10 км    ясно 
+13.3 +10.4 83 +15  1017.3  749  286           
06 20.07.17 тихо ()   10 км    ясно 
+21.9 +12.6 56 +27  1016.7  749  277  +13         
09 20.07.17 090 (В) 10 км    1/0 средняя 
[Ac lent]
+25.2 +8 33 +25  1015.5  -1  748  275           
12 20.07.17 090 (В) 10 км    1/0 верхняя 
[Cc]
+27.1 +9.4 33 +28  1014.3  -1.1  747  272           
15 20.07.17 090 (В) 10 км    3/0 верхняя 
[Ci sp]
+26.7 +9.1 33 +27  1013.2  -1.1  746  272           
18 20.07.17 080 (В) 10 км    8/3 600 м кучево-дожд., средняя 
[Cb calv|Ac lent]
+23.2 +12.1 50 +27  1013.7  0.3  747  275    +27.2       
21 20.07.17 100 (В) 10 км  слаб. ливневой дождь  10/8 420 м кучево-дожд., средняя 
[Cb calv|Ac und]
+19.1 +15.5 80 +31  1013.9  747  278           
00 21.07.17 120 (ЮВ) 10 км  {ливн. осадки}  ясно 
+18.2 +14.6 80 +28  1013.7  -0.3  746  279         
03 21.07.17 090 (В) 10 км    6/0 средняя, верхняя 
[Ac trans|Ci fib]
+17.8 +13.8 77 +26  1013.8  0.1  746  280           
06 21.07.17 110 (В) 10 км    1/0 средняя 
[Ac cast]
+23.3 +15.9 63 +34  1014  0.5  747  274  +16.4       
09 21.07.17 100 (В) 10 км    ясно 
+27.7 +15.5 47 +37  1014  0.3  747  270           
12 21.07.17 170 (Ю) 10 км    8/3 1000 м верхняя 
[Cu med, cong|Ci sp]
+30.4 +14.3 38 +38  1013.2  -0.6  747  268           
15 21.07.17 180 (Ю) 10 км    8/8 600 м верхняя 
[Cu Sc|Ci ing]
+30.3 +15.8 42 +41  1012.7  -0.5  746  267           
18 21.07.17 тихо ()   10 км    3/0 средняя 
[Ac cast]
+25.3 +18.7 67 +41  1013  746  271    +30.7       
21 21.07.17 120 (ЮВ) 10 км    ясно 
+19.9 +15 73 +30  1013.5  0.1  746  277           
00 22.07.17 180 (Ю) 10 км    ясно 
+18.9 +15.5 81 +30  1012.8  -0.7  746  278           
03 22.07.17 210 (ЮЗ) 10 км    ясно 
+19.9 +16.8 82 +33  1012.5  -0.2  746  276           
06 22.07.17 240 (ЮЗ) 10 км    ясно 
+26 +14.9 50 +35  1012.8  0.6  746  271  +18.5         
09 22.07.17 240 (ЮЗ) 10 км    ясно 
+30.5 +11.5 31 +34  1012.2  -0.3  746  268           
12 22.07.17 230 (ЮЗ) 10 км    6/6 1000 м 
[Cu med, cong]
+31.8 +11.8 29 +36  1011.2  -0.9  745  267           
15 22.07.17 300 (СЗ) 10 км    9/5 1000 м средняя, верхняя 
[Sc|Ac lent|Cc]
+28 +16.6 50 +40  1010.7  -0.7  745  269           
18 22.07.17 300 (СЗ) 10 км  гроза, ливневой дождь  9/8 570 м кучево-дожд., средняя, верхняя 
[Cb cap|Ac cuf|Ci ing]
+22.7 +18.9 79 +39  1012.9  1.9  746  273    +33  0.4     
21 22.07.17 320 (СЗ) 10 км  {гроза, ливн. осадки}  ясно 
+19.3 +16.6 84 +32  1013.1  -0.1  746  277           
Время (UTC), дата Ветер
(°,м/с) 
Видим.   Явления Облачность Т
(°С)
Тd
(°С)
f(%) Тe
(°С)
Pmin
(гПа)
dP
(гПа)
Po
(мм)
O2
(г/м3)
Тmin Tmax R s Состояние
почвы

Для получения пояснительной информации подведите курсор к названию столбца.

ПОГОДА Лубны - архив

Всё, что Вы хотите узнать о погоде Лубны - удобно и подробно!

Выберите нужную дату (начиная с 1 января 2015* года) и нажмите кнопку "Найти".
Будут отображены архивные сводки погоды по пункту Лубны, начиная с указанной даты.


Отображать данные в формате CSV (для использования в таблицах Excel)


Внимание! Наш архив погоды предназначен исключительно для личного некоммерческого использования в познавательных целях. Если Вам необходимы официальные справки о состоянии погоды (для производственных, юридических, коммерческих и т.п. целей), обращайтесь в органы Росгидромета.

*Примечание: данная дата относится к архиву по метеостанциям СССР (Россия, СНГ, Балтия).
Архив по метеостанциям Зарубежной Европы и Азии (кроме Китая) хранится 10 дней, по другим регионам земного шара (Китай, Африка, Америка, Австралия, Океания) - 1 день.

Лубны - район местоположения метеостанции


Название, широта, долгота, высота метеостанции:
Лубны 50°ш. 33°д. 158 м над ур. моря [Украина]

Дополнительная информация

В oтличие oт бoльшинства пoгoдных сайтoв мы публикуем пoдрoбную метеoинфoрмацию в детальнoм прoфессиoнальнoм фoрмате.

Характеристики температуры и влажнoсти вoздуха измеряются на высoте 2 м в тени вдали oт зданий и деревьев.
Скoрoсть ветра измеряется на высoте 10 м (на урoвне рoста челoвека скoрoсть ветра ниже в 1.5-2 раза). Если метеoстанция нахoдится в гoрoде или в лесу, тo скoрoсть ветра занижена на 2-4 м/с пo сравнению с oткрытым местoм. Скoрoсть ветра над акватoриями крупных рек и oзёр, а также на вершинах хoлмoв на 2-5 м/с выше, чем в oбычных услoвиях.
Атмoсфернoе давление в разных тoчках местнoсти мoжет значительнo oтличаться oт давления на метеoстанции, в зависимoсти oт услoвий рельефа (при пoдъёме на 10 м давление пoнижается примернo на 1 мм рт.ст.).